Del Rio Laughlin AFB, TX

1:51 PM CDT on July 20, 2017 (GMT -0500)
Laughlin Air Force Base

Weather History for KDLF - April, 2013

Change the Weather History Date:

Sunday, April 21, 2013

  Actual Average Record
Temperature  
Mean Temperature 71 °F -  
Max Temperature 86 °F 85 °F 98 °F (1997)
Min Temperature 56 °F 63 °F 50 °F (2009)
Cooling Degree Days 6    
Growing Degree Days 21 (Base 50)    
Moisture  
Dew Point 48 °F    
Average Humidity 46    
Maximum Humidity 75    
Minimum Humidity 25    
Precipitation  
Precipitation 0.00 in - - ()
Sea Level Pressure  
Sea Level Pressure 29.98 in    
Wind  
Wind Speed 13 mph (SE)    
Max Wind Speed 17 mph    
Max Gust Speed 24 mph    
Visibility 9 miles    
Events      
Averages and records for this station are not official NWS values.
T = Trace of Precipitation, MM = Missing Value Source: NWS Daily Summary

Daily Weather History Graph

Daily Weather History Graph

Search for Another Location

Airport or City:

Trip Planner

Search our weather history database for the weather conditions in past years. The results will help you decide how hot, cold, wet, or windy it might be!

Date:

Astronomy

Apr. 21, 2013 Rise Set
Actual Time 7:10 AM CDT 8:13 PM CDT
Civil Twilight 6:45 AM CDT 8:38 PM CDT
Nautical Twilight 6:16 AM CDT 9:07 PM CDT
Astronomical Twilight 5:46 AM CDT 9:37 PM CDT
Moon 4:18 PM CDT (4/21) 4:13 AM CDT (4/21)
Length of Visible Light 13h 52m
Length of Day
13h 03m
Waxing Gibbous, 80% of the Moon is Illuminated
Apr 21
Waxing Gibbous
Apr 25
Full
May 2
Last Quarter
May 9
New
May 17
First Quarter

Hourly Weather History & Observations

Time (CDT) Temp. Dew Point Humidity Pressure Visibility Wind Dir Wind Speed Gust Speed Precip Events Conditions
12:58 AM 64.0 °F 38.8 °F 39% 29.95 in 10.0 mi ESE 16.1 mph 24.2 mph N/A   Clear
1:55 AM 60.8 °F 41.0 °F 48% 30.00 in 10.0 mi SE 15.0 mph 23.0 mph N/A   Clear
2:58 AM 59.4 °F 42.3 °F 53% 30.00 in 10.0 mi ESE 12.7 mph - N/A   Clear
3:58 AM 58.1 °F 44.2 °F 60% 29.99 in 10.0 mi ESE 12.7 mph - N/A   Clear
4:58 AM 57.0 °F 46.4 °F 68% 29.98 in 10.0 mi ESE 12.7 mph - N/A   Clear
5:58 AM 57.0 °F 48.2 °F 72% 30.00 in 10.0 mi ESE 13.8 mph - N/A   Clear
6:58 AM 56.7 °F 48.9 °F 75% 30.01 in 10.0 mi ESE 13.8 mph - N/A   Clear
7:18 AM 57.2 °F 48.2 °F 72% 30.04 in 10.0 mi ESE 15.0 mph - N/A   Mostly Cloudy
7:58 AM 58.5 °F 50.0 °F 73% 30.04 in 10.0 mi ESE 11.5 mph - N/A   Overcast
8:58 AM 59.9 °F 50.7 °F 72% 30.06 in 10.0 mi SE 12.7 mph - N/A   Overcast
9:58 AM 62.6 °F 51.6 °F 67% 30.07 in 10.0 mi SE 17.3 mph 21.9 mph N/A   Overcast
10:58 AM 64.9 °F 51.6 °F 62% 30.08 in 10.0 mi SE 12.7 mph - N/A   Mostly Cloudy
11:33 AM 68.0 °F 51.8 °F 56% 30.10 in 10.0 mi SSE 12.7 mph 19.6 mph N/A   Scattered Clouds
11:58 AM 67.6 °F 51.8 °F 57% 30.06 in 10.0 mi SSE 10.4 mph - N/A   Clear
12:58 PM 72.0 °F 51.6 °F 49% 30.05 in 10.0 mi SSE 11.5 mph - N/A   Clear
1:58 PM 75.6 °F 51.1 °F 42% 30.01 in 10.0 mi SE 10.4 mph - N/A   Partly Cloudy
2:58 PM 78.8 °F 51.3 °F 38% 29.99 in 10.0 mi SE 13.8 mph - N/A   Clear
3:58 PM 82.6 °F 48.7 °F 31% 29.94 in 10.0 mi SE 8.1 mph 17.3 mph N/A   Clear
4:58 PM 84.2 °F 47.1 °F 27% 29.92 in 9.0 mi SE 10.4 mph - N/A   Clear
5:58 PM 84.2 °F 46.4 °F 27% 29.90 in 4.0 mi South 9.2 mph - N/A   Haze
6:03 PM 86.0 °F 46.4 °F 25% 29.93 in 1.2 mi SE 8.1 mph - N/A   Haze
6:08 PM 86.0 °F 46.4 °F 25% 29.93 in 1.0 mi SSE 10.4 mph - N/A   Haze
6:09 PM 86.0 °F 46.4 °F 25% 29.92 in 10.0 mi SSE 12.7 mph - N/A   Clear
6:13 PM 86.0 °F 46.4 °F 25% 29.93 in 1.8 mi ESE 9.2 mph - N/A   Haze
6:18 PM 86.0 °F 46.4 °F 25% 29.93 in 3.0 mi SSE 8.1 mph - N/A   Haze
6:58 PM 85.5 °F 46.2 °F 25% 29.90 in 10.0 mi SSE 10.4 mph - N/A   Clear
7:58 PM 83.3 °F 46.2 °F 27% 29.91 in 10.0 mi SSE 9.2 mph - N/A   Clear
8:58 PM 77.7 °F 47.7 °F 35% 29.94 in 10.0 mi SE 8.1 mph - N/A   Clear
9:58 PM 75.6 °F 48.6 °F 38% 29.95 in 10.0 mi ESE 8.1 mph - N/A   Clear
10:58 PM 73.9 °F 49.3 °F 42% 29.96 in 10.0 mi SE 10.4 mph - N/A   Clear
11:58 PM 72.0 °F 49.3 °F 45% 29.96 in 10.0 mi ESE 9.2 mph - N/A   Clear